ONEWEB-0094 (45450 NORAD) Tracking and Keplerian Element Data

This shows tracking and keplerian element data for the satellite.

Feedback or suggestion? Click here.




ElementValue
Catalog45450
NameONEWEB-0094
Epoch Orbit86
Epoch Day87.57400675
Epoch Year2020
RAAN136.8417
Inclination87.3995
Eccentricity0.0024813
Argument of Perigee288.4813
Mean Anonmoly71.3743
Mean Motion15.34978388
Decay Rate1.922E-05
L11 45450U 20020AC 20087.57400675 .00001922 00000-0 54924-4 0 9995
L22 45450 87.3995 136.8417 0024813 288.4813 71.3743 15.34978388 868

Live tracking and technical data element details for ONEWEB-0094 (NORAD 45450). ONEWEB-0094 can be tracked NOW for your location showing map with azimuth and elevation plus other details from your city location.

Track the satellite on the map from your city or location and see movement details for azimuth, elevation, latitude, longitude, range, height, and movement on the map or in text.







IsCatalogInMostPopularTable: catalog: 45450, numindb: -1

Insert: records affected: 1


GetName: 45450 ONEWEB-0094

Hit Count: inserted at: Tue, 31 Mar 2020 13:13:46 GMT